Probability
0 0 0 0 0 0 0 0 0 0 0 0 0 0 0 0 0 0 0 0 0 0 0 0 0 0 0 0 0 0 0 0 0 0 0 0 0 0 0 0 0 0 0 0 0 0 0 0 0
0 0 0 0 0 0 0 0 0 0 0 0 0 0 0 0 0 0 0 0 0 0 0 0 0 0 0 0 0 0 0 0 0 0 0 0 0 0 0 0 0 0 0 0 0 0 0 0 0
0 0 0 0 0 0 0 0 0 0 0 0 0 0 0 0 0 0 0 0 0 0 0 0 0 0 0 0 0 0 0 0 0 0 0 0 0 0 0 0 0 0 0 0 0 0 0 0 0
0 0 0 0 0 0 0 0 0 0 0 0 0 0 0 0 0 0 0 0 0 0 0 0 0 0 0 0 0 0 0 0 0 0 0 0 0 0 0 0 0 0 0 0 0 0 0 0 0
0 0 0 0 0 0 0 0 0 0 0 0 0 0 0 0 0 0 0 0 0 0 0 0 0 0 0 0 0 0 0 0 0 0 0 0 0 0 0 0 0 0 0 0 0 0 0 0 0
0 0 0 0 0 0 0 0 0 0 0 0 0 0 0 0 0 0 0 0 0 0 0 0 0 0 0 0 0 0 0 0 0 0 0 0 0 0 0 0 0 0 0 0 0 0 0 0 0
0 0 0 0 0 0 0 0 0 0 0 0 0 0 0 0 0 0 0 0 0 0 0 0 0 0 0 0 0 0 0 0 0 0 0 0 0 0 0 0 0 0 0 0 0 0 0 0 0
0 0 0 0 0 0 0 0 0 0 0 0 0 0 0 0 0 0 0 0 0 0 0 0 0 0 0 0 0 0 0 0 0 0 0 0 0 0 0 0 0 0 0 0 0 0 0 0 0
0 0 0 0 0 0 0 0 0 0 0 0 0 0 0 0 0 0 0 0 0 0 0 0 0 0 0 0 0 0 0 0 0 0 0 0 0 0 0 0 0 0 0 0 0 0 0 0 0
0 0 0 0 0 0 0 0 0 0 0 0 0 0 0 0 0 0 0 0 0 0 0 0 0 0 0 0 0 0 0 0 0 0 0 0 0 0 0 0 0 0 0 0 0 0 0 0 0
0 0 0 0 0 0 0 0 0 0 0 0 0 0 0 0 0 0 0 0 0 0 0 0 0 0 0 0 0 0 0 0 0 0 0 0 0 0 0 0 0 0 0 0 0 0 0 0 0
0 0 0 0 0 0 0 0 0 0 0 0 0 0 0 0 0 0 0 0 0 0 0 0 0 0 0 0 0 0 0 0 0 0 0 0 0 0 0 0 0 0 0 0 0 0 0 0 0
0 0 0 0 0 0 0 0 0 0 0 0 0 0 0 0 0 0 0 0 0 0 0 0 0 0 0 0 0 0 0 0 0 0 0 0 0 0 0 0 0 0 0 0 0 0 0 0 0
0 0 0 0 0 0 0 0 0 0 0 0 0 0 0 0 0 0 0 0 0 0 0 0 0 0 0 0 0 0 0 0 0 0 0 0 0 0 0 0 0 0 0 0 0 0 0 0 0
0 0 0 0 0 0 0 0 0 0 0 0 0 0 0 0 0 0 0 0 0 0 0 0 0 0 0 0 0 0 0 0 0 0 0 0 0 0 0 0 0 0 0 0 0 0 0 0 0
0 0 0 0 0 0 0 0 0 0 0 0 0 0 0 0 0 0 0 0 0 0 0 0 0 0 0 0 0 0 0 0 0 0 0 0 0 0 0 0 0 0 0 0 0 0 0 0 0
0 0 0 0 0 0 0 0 0 0 0 0 0 0 0 0 0 0 0 0 0 0 0 0 0 0 0 0 0 0 0 0 0 0 0 0 0 0 0 0 0 0 0 0 0 0 0 0 0
0 0 0 0 0 0 0 0 0 0 0 0 0 0 0 0 0 0 0 0 0 0 0 0 0 0 0 0 0 0 0 0 0 0 0 0 0 0 0 0 0 0 0 0 0 0 0 0 0
0 0 0 0 0 0 0 0 0 0 0 0 0 0 0 0 0 0 0 0 0 0 0 0 0 0 0 0 0 0 0 0 0 0 0 0 0 0 0 0 0 0 0 0 0 0 0 0 0
0 0 0 0 0 0 0 0 0 0 0 0 0 0 0 0 0 0 0 0 0 0 0 0 0 0 0 0 0 0 0 0 0 0 0 0 0 0 0 0 0 0 0 0 0 0 0 0 0
0 0 0 0 0 0 0 0 0 0 0 0 0 0 0 0 0 0 0 0 0 0 0 0 0 0 0 0 0 0 0 0 0 0 0 0 0 0 0 0 0 0 0 0 0 0 0 0 0
0 0 0 0 0 0 0 0 0 0 0 0 0 0 0 0 0 0 0 0 0 0 0 0 0 0 0 0 0 0 0 0 0 0 0 0 0 0 0 0 0 0 0 0 0 0 0 0 0
0 0 0 0 0 0 0 0 0 0 0 0 0 0 0 0 0 0 0 0 0 0 0 0 0 0 0 0 0 0 0 0 0 0 0 0 0 0 0 0 0 0 0 0 0 0 0 0 0
0 0 0 0 0 0 0 0 0 0 0 0 0 0 0 0 0 0 0 0 0 0 0 0 0 0 0 0 0 0 0 0 0 0 0 0 0 0 0 0 0 0 0 0 0 0 0 0 0
0 0 0 0 0 0 0 0 0 0 0 0 0 0 0 0 0 0 0 0 0 0 0 0 0 0 0 0 0 0 0 0 0 0 0 0 0 0 0 0 0 0 0 0 0 0 0 0 0
0 0 0 0 0 0 0 0 0 0 0 0 0 0 0 0 0 0 0 0 0 0 0 0 0 0 0 0 0 0 0 0 0 0 0 0 0 0 0 0 0 0 0 0 0 0 0 0 0
0 0 0 0 0 0 0 0 0 0 0 0 0 0 0 0 0 0 0 0 0 0 0 0 0 0 0 0 0 0 0 0 0 0 0 0 0 0 0 0 0 0 0 0 0 0 0 0 0
0 0 0 0 0 0 0 0 0 0 0 0 0 0 0 0 0 0 0 0 0 0 0 0 0 0 0 0 0 0 0 0 0 0 0 0 0 0 0 0 0 0 0 0 0 0 0 0 0
0 0 0 0 0 0 0 0 0 0 0 0 0 0 0 0 0 0 0 0 0 0 0 0 0 0 0 0 0 0 0 0 0 0 0 0 0 0 0 0 0 0 0 0 0 0 0 0 0
0 0 0 0 0 0 0 0 0 0 0 0 0 0 0 0 0 0 0 0 0 0 0 0 0 0 0 0 0 0 0 0 0 0 0 0 0 0 0 0 0 0 0 0 0 0 0 0 0
Wind_Speed
7 4 3 5 7 6 0 2 1 1 1 1 2 4 7 5 4 3 2 5 8 7 6 9 12 13 13 12 12 12 14 15 15 16 16 16 16 17 17 17 17 17 18 18 18 18 18 18 19
3 3 5 6 6 2 3 3 3 3 4 4 4 4 4 2 2 6 5 5 8 8 7 9 12 13 13 12 12 13 14 15 15 16 16 16 16 17 17 17 16 17 17 18 17 17 18 18 18
3 5 5 5 4 5 4 3 4 2 4 3 3 3 3 3 4 6 5 8 8 7 7 9 12 13 13 12 12 13 14 15 15 15 16 15 16 16 16 16 16 16 17 17 17 17 17 17 17
3 5 6 4 2 4 4 3 4 5 3 2 4 4 2 0 5 5 9 9 9 7 7 9 12 13 13 13 13 13 14 15 15 15 15 15 15 15 15 15 15 15 16 16 16 16 16 16 16
4 4 4 1 3 3 4 3 5 4 4 3 4 5 2 3 5 11 10 9 10 8 6 8 12 12 12 13 13 13 14 14 14 15 15 15 14 14 14 14 14 14 15 15 15 16 15 15 14
4 4 3 3 4 4 3 3 5 3 3 3 5 5 1 2 8 11 9 8 8 8 6 7 11 11 11 11 12 12 13 13 14 14 14 14 13 13 13 13 13 14 14 14 15 15 15 14 13
4 4 3 4 2 3 2 4 5 5 4 6 6 6 2 4 6 9 9 9 7 7 7 6 6 8 10 11 11 11 11 12 12 13 13 12 12 12 12 11 12 13 13 13 14 14 14 13 13
4 4 3 3 3 4 2 3 3 6 4 3 5 8 7 8 9 10 10 9 8 7 6 6 6 6 6 7 10 10 10 11 11 12 11 11 10 10 10 9 11 12 12 12 12 12 12 12 11
3 3 4 6 6 4 1 2 1 2 5 2 1 3 5 14 14 13 11 9 9 8 7 7 6 6 6 6 7 8 9 10 10 9 10 8 5 5 6 7 9 10 10 11 11 11 11 10 10
3 4 7 5 5 3 2 3 5 4 3 2 1 3 9 15 16 15 14 14 13 12 10 7 8 7 6 5 5 4 4 5 5 5 5 4 4 4 5 7 8 9 8 9 9 10 9 7 4
5 6 4 4 3 2 2 2 4 8 5 8 9 11 15 15 15 15 14 13 13 12 11 9 8 7 6 5 4 3 3 3 4 5 5 4 3 3 3 3 3 4 5 4 5 5 3 3 3
4 5 4 3 1 2 3 3 3 7 8 7 10 17 19 20 18 17 15 13 11 12 13 11 9 8 7 6 4 4 3 3 3 4 5 4 3 3 2 2 2 2 2 2 2 2 3 3 3
4 4 4 4 3 3 2 4 4 7 5 2 9 14 19 20 17 13 11 10 10 12 13 12 11 10 8 7 5 5 4 4 4 3 4 4 3 3 2 2 1 1 1 1 1 1 2 2 2
6 4 4 3 2 2 3 4 3 7 2 6 12 15 17 17 15 11 10 11 11 12 12 11 12 11 9 8 6 5 5 4 4 4 4 5 4 4 3 2 2 1 1 1 1 0 0 1 1
2 2 4 4 3 3 2 5 7 5 5 8 11 13 13 12 11 14 14 13 12 11 11 11 12 10 10 9 7 5 5 4 4 4 5 5 4 4 4 3 2 2 2 1 1 0 0 1 2
3 2 4 5 4 4 6 10 9 4 8 9 9 9 11 11 12 11 11 10 11 10 10 11 9 10 10 9 7 5 5 5 4 4 4 6 5 5 4 3 3 3 2 2 1 1 1 2 2
3 5 6 4 4 4 6 8 7 5 8 9 9 10 10 10 10 10 10 10 11 12 12 12 10 11 11 9 7 6 5 5 4 4 4 5 6 6 4 4 3 4 3 2 2 2 1 2 2
8 5 5 7 4 5 6 8 7 3 7 9 9 9 9 12 16 11 10 10 10 10 11 11 11 11 9 7 5 4 5 5 4 5 5 6 6 6 5 4 4 4 3 3 3 3 2 2 2
7 7 7 7 4 5 8 9 10 5 6 8 8 9 11 15 11 7 9 9 9 10 11 13 13 12 9 7 7 6 6 5 5 5 6 7 7 7 6 4 4 4 4 4 4 3 2 2 1
5 6 6 3 1 4 5 10 9 6 7 9 11 13 14 12 8 8 9 10 12 13 14 14 14 13 12 10 7 4 4 4 4 5 6 7 7 7 6 6 5 5 4 4 4 3 2 1 1
8 8 6 3 1 1 2 8 9 8 6 7 8 9 9 12 13 11 11 12 13 15 16 14 15 14 13 11 6 4 3 3 4 5 5 7 8 8 7 7 6 5 5 4 5 5 4 2 2
10 6 5 3 2 3 3 6 9 8 8 10 11 10 12 12 12 11 11 12 15 16 14 14 14 14 13 12 10 10 9 8 7 5 5 6 7 8 7 7 6 6 4 4 4 4 3 3 2
5 7 5 3 2 2 3 5 9 4 10 12 12 13 14 13 13 13 13 14 13 12 11 12 12 13 13 14 14 13 11 8 5 5 6 6 5 6 6 6 5 5 4 4 4 4 4 3 3
8 8 6 4 2 8 10 7 11 8 11 9 11 13 13 12 11 11 9 8 8 8 8 10 12 13 13 15 15 14 13 10 8 7 6 5 3 3 4 5 5 5 4 4 4 4 4 3 3
9 9 4 3 5 10 6 8 13 9 9 11 12 12 11 9 9 9 9 9 9 9 10 10 12 13 13 15 15 15 14 12 11 9 8 6 4 3 4 5 5 4 4 5 5 5 4 4 4
13 11 9 9 8 4 4 11 12 8 6 6 8 7 7 7 8 9 9 8 8 9 9 10 12 12 12 14 14 13 12 9 8 9 7 7 5 5 5 6 6 6 6 6 6 5 5 4 5
12 9 6 5 2 2 7 9 11 6 7 8 8 7 9 8 7 7 6 6 6 7 7 9 10 10 11 12 12 11 11 9 9 8 7 6 6 6 7 7 7 6 6 6 7 5 5 5 5
10 11 6 6 7 6 6 7 8 6 10 10 10 11 10 7 6 6 5 5 4 4 4 4 6 7 7 8 9 8 9 9 9 9 9 8 8 8 9 8 8 7 7 7 7 6 5 6 5
9 9 8 7 6 7 6 10 9 11 11 11 12 10 9 8 7 6 4 4 4 3 4 4 4 5 5 6 7 8 8 8 9 9 10 10 9 9 9 9 9 8 7 7 7 7 6 7 5
8 11 11 10 8 6 4 10 5 7 6 6 7 6 4 5 5 5 5 5 4 4 4 4 4 5 5 5 6 7 8 9 10 10 10 10 11 9 9 9 9 8 7 7 7 8 6 6 6
Wind_Direction
348 0 47 51 53 52 272 257 210 139 118 69 119 137 145 145 160 170 117 136 130 132 135 128 121 118 117 113 110 108 105 101 99 96 93 92 91 89 88 87 86 86 85 83 82 82 83 83 81
344 6 47 56 82 77 272 251 208 180 148 119 75 87 99 102 90 118 132 140 130 128 125 125 121 122 121 117 112 109 106 104 101 98 96 93 92 91 89 88 88 87 86 85 84 83 84 84 82
10 44 71 71 111 177 224 221 194 118 132 120 96 72 111 152 148 148 150 136 121 118 120 127 124 126 125 121 116 112 109 106 103 100 98 95 92 91 91 90 88 88 87 85 85 85 85 85 83
43 40 54 78 196 217 223 222 163 130 122 102 120 99 78 101 163 151 135 129 121 117 122 131 128 129 128 124 119 114 112 109 106 104 101 97 95 93 92 92 90 89 87 85 85 86 86 87 85
53 66 64 50 249 253 246 218 155 155 157 135 124 120 83 1 116 129 131 130 130 126 124 133 130 131 131 129 122 117 115 113 110 107 104 102 99 98 96 95 94 92 89 87 87 87 86 86 85
58 68 106 221 256 278 264 173 145 145 143 146 131 117 91 118 133 136 132 129 131 130 124 128 131 131 131 129 125 121 120 118 116 112 109 106 103 101 100 99 98 96 93 90 88 87 84 84 84
107 110 178 202 232 274 241 160 158 155 164 186 155 120 135 162 149 135 130 128 125 124 121 117 125 128 128 125 123 121 120 117 116 114 109 104 102 100 98 98 100 98 95 91 88 87 84 82 83
120 116 173 198 197 243 224 161 173 158 176 147 141 147 178 175 144 131 132 136 135 130 129 126 123 122 122 121 123 121 118 115 112 109 105 101 98 96 92 92 98 98 96 93 88 86 83 80 79
97 113 199 206 195 228 190 158 133 126 121 140 195 184 181 141 141 141 143 148 154 154 149 142 136 131 127 124 126 122 118 118 114 111 111 102 94 90 87 92 96 96 94 92 87 84 80 75 70
122 182 216 213 197 203 192 184 170 129 133 171 103 76 128 146 154 158 162 166 170 172 168 162 154 148 140 133 124 119 117 120 116 116 113 106 105 99 94 91 90 86 81 81 81 77 72 69 56
164 200 222 241 221 202 191 207 171 147 193 205 187 165 153 162 166 170 173 176 177 175 174 173 167 161 152 142 142 133 124 123 126 129 127 117 106 98 88 82 75 74 70 64 64 60 54 56 55
182 228 227 245 214 194 200 185 186 194 216 214 180 162 163 172 178 181 179 180 176 177 181 178 174 170 163 155 155 153 150 148 149 150 143 132 124 121 119 108 104 88 78 77 63 57 47 44 38
202 240 236 248 269 245 206 211 213 237 261 139 139 159 173 180 185 185 180 176 176 182 183 183 180 179 173 166 169 169 169 168 164 158 158 152 146 149 145 136 128 119 101 94 79 55 36 22 4
208 231 266 273 262 244 211 250 204 249 169 146 156 174 184 186 183 177 177 180 184 187 185 182 185 184 179 179 180 178 177 171 166 170 172 167 159 159 159 160 165 171 166 156 141 119 18 333 324
145 214 282 263 226 223 165 269 229 225 149 168 180 184 189 193 185 189 188 186 187 189 184 184 186 184 185 186 185 180 180 173 175 177 176 175 172 170 169 173 186 193 179 169 155 243 334 311 312
119 171 240 253 200 194 167 245 253 179 164 187 193 193 195 200 199 198 191 188 185 183 184 186 184 186 190 189 187 182 180 180 183 177 177 183 182 177 173 182 196 187 173 175 188 208 275 289 295
166 202 217 259 213 174 183 236 260 171 181 198 200 202 203 206 211 206 196 192 188 186 185 186 186 188 192 190 186 184 181 186 184 178 182 187 187 183 181 191 194 180 180 188 192 201 214 274 292
184 188 199 219 230 179 207 240 266 209 199 209 208 208 211 214 217 205 198 195 191 189 187 189 190 190 187 183 177 179 187 192 186 187 191 186 188 187 186 192 192 178 181 193 193 206 209 245 283
164 175 202 219 218 187 223 241 253 231 220 228 221 215 219 226 225 203 196 193 190 192 192 193 193 192 184 182 186 190 198 196 194 195 192 189 190 190 190 192 188 184 196 203 192 187 210 236 209
174 196 215 248 197 197 239 253 256 228 220 220 217 216 219 227 226 214 200 195 198 199 199 198 198 195 192 194 188 180 173 183 191 189 193 192 192 192 194 196 194 193 199 199 189 178 176 195 168
203 197 197 208 49 265 281 279 258 250 231 236 231 227 224 222 223 217 207 205 203 205 203 202 201 198 197 191 175 159 155 155 176 190 196 198 196 196 196 199 196 193 192 201 196 184 183 190 183
216 190 173 166 139 249 202 258 263 241 242 236 232 226 228 227 224 220 212 209 209 211 204 203 201 199 196 190 186 185 193 200 197 185 189 193 197 199 198 197 194 191 187 191 188 181 178 172 184
174 152 157 161 173 270 235 237 269 237 240 241 233 227 229 227 221 220 215 214 213 207 202 202 199 200 196 194 196 197 203 203 178 170 180 188 192 193 191 189 184 180 178 177 167 163 166 172 171
127 95 76 68 112 245 218 207 262 223 217 228 230 227 228 226 222 224 219 210 209 199 197 195 197 201 197 196 199 200 201 192 176 177 180 182 173 174 175 168 168 163 158 161 156 149 150 148 140
150 132 137 176 210 241 178 204 246 236 219 215 222 227 227 224 218 217 210 204 202 195 194 193 196 202 198 198 201 202 201 194 190 184 182 174 168 166 166 153 149 143 139 133 126 123 119 121 121
179 164 171 184 206 248 183 227 247 241 244 246 248 248 243 231 220 218 211 203 201 197 193 192 197 201 197 199 202 200 197 194 192 184 175 174 168 161 148 138 131 126 124 122 117 110 105 104 107
161 192 168 137 133 212 238 263 293 258 258 250 246 243 239 230 220 216 207 197 194 192 194 193 195 198 197 199 197 196 192 186 179 169 160 150 143 136 132 128 123 118 118 119 116 110 108 105 99
161 153 140 166 176 228 257 242 235 228 230 235 235 234 237 223 214 207 199 190 184 182 179 178 187 194 193 191 190 186 182 176 164 153 149 144 140 135 132 127 122 118 114 112 110 108 108 103 96
147 163 168 167 184 184 236 255 220 208 209 219 229 230 227 215 207 196 186 175 163 154 156 159 165 169 176 179 173 164 159 154 150 148 147 144 138 137 135 133 128 124 118 116 114 111 111 108 101
159 173 166 180 207 198 219 263 258 227 241 241 247 250 233 206 191 180 173 165 162 162 158 157 158 160 163 159 153 149 145 143 141 142 142 139 135 133 132 131 126 122 119 118 119 117 114 114 111